Weather in Kuytezha

Russia / Republic of Karelia     60°59′38″N   33°12′51″E
temp.,
°C
wind,
m/s
gust,
m/s
humid.,
%
clouds,
%
prec.,
mm/h
press.,
hPa
HPBL,
m
27 september, mon
mon2700:00+8n269579 0.0 1024178
03:00+6n249714 0.0 102685
06:00+5nne249768 0.0 102879
09:00+8nne2488100 0.0 1029160
12:00+12nne237253 0.0 1030621
15:00+14ne246149 0.0 10301261
18:00+10ne22801 0.1 103148
21:00+7ene25945 0.1 103289
28 september, tue
tue2800:00+6ene23955 0.0 103352
03:00+6ene229510 0.0 103323
06:00+5ene229548 0.0 103418
09:00+8e238346 0.0 1034149
12:00+13ese126072 0.0 1035749
15:00+14ese125412 0.0 10341202
18:00+10sse01745 0.0 103510
21:00+7ene008418 0.0 103610
29 september, wed
wed2900:00+6e00895 0.0 103710
03:00+5ssw00935 0.0 103710
06:00+5wsw00945 0.0 103710
09:00+8sw11835 0.0 1037108
12:00+12wsw22665 0.0 1037629
15:00+13w22645 0.0 1036779
18:00+8w228635 0.0 103636
21:00+6wnw119048 0.0 103610
30 september, thu
thu3000:00+5wnw008999 0.0 103610
03:00+5wsw009042 0.0 103610
06:00+4s119214 0.0 103610
09:00+7ssw118021 0.0 1036104
12:00+11sw126346 0.0 1036562
15:00+13sw125735 0.0 1035762
18:00+8w11785 0.0 103410
21:00+6se11857 0.0 103410
1 october, fri
fri100:00+6sse22898 0.0 103424
03:00+5sse229517 0.0 103337
06:00+4sse23965 0.0 103358
09:00+7s26849 0.0 1032208
12:00+11ssw35615 0.0 1032719
15:00+12ssw355356 0.0 1031970
18:00+8s227619 0.0 103012
21:00+6sse248784 0.0 103086